Tracking 29069 objects as of 18-Jul-2024
HD Live streaming from Space Station
objects crossing your sky now

COSMOS 469

Track COSMOS 469 now!
10-day predictions
COSMOS 469 is classified as:


NORAD ID: 5721
Int'l Code: 1971-117A
Perigee: 968.7 km
Apogee: 1,001.1 km
Inclination: 64.5 °
Period: 104.6 minutes
Semi major axis: 7355 km
RCS: 2.893 m2 (large)
Launch date: December 25, 1971
Source: Commonwealth of Independent States (former USSR) (CIS)
Launch site: TYURATAM MISSILE AND SPACE COMPLEX (TTMTR)
Your satellite tracking list
Your tracking list is empty




NASA's NSSDC Master Catalog

Two Line Element Set (TLE):
1  5721U 71117A   24199.87400440 -.00000043  00000-0  48515-4 0  9999
2  5721  64.4894   9.6270 0022029  41.0434 319.2270 13.76091010641156
Source of the keplerian elements: AFSPC